Preview of NWS' New Version of Forecast
This preview is not operational and should not be used for support decisions.

Regional Weather Roundup (RWR)

Issued by National Weather Service (NWS)

                            
000
ASCA42 TJSJ 211410
RWRPR 
PUERTO RICO/U.S. VIRGIN ISLANDS HOURLY WEATHER ROUNDUP
NATIONAL WEATHER SERVICE SAN JUAN PR
1000 AM AST SUN JUL 21 2019

PRZ001>002-007>008-010-211500-
PUERTO RICO
  
CITY           SKY/WX    TMP DP  RH WIND       PRES   REMARKS
SAN JUAN LMM   MOSUNNY   88  73  62 E15       30.03R HX  96           
AGUADILLA      SUNNY     86  75  70 E9        30.05R HX  95           
CEIBA          SUNNY     88  72  58 E9        30.05R HX  94           
$$

VIZ001>002-211500-
U.S. VIRGIN ISLANDS
  
CITY           SKY/WX    TMP DP  RH WIND       PRES   REMARKS
CHARLOTTE AMA  MOSUNNY   88  73  62 SE10      30.02S HX  96           
CHRISTIANSTED  MOSUNNY   88  72  58 E12       30.03R HX  94           
$$

HOURLY WEATHER ROUNDUP FOR THE NEWS MEDIA
  
CITY           SKY/WX    TMP DP  RH WIND       PRES   REMARKS
ORLANDO        FAIR      86  75  69 SE7       30.08F HX  95           
NEW YORK       FAIR      92  77  61 SW13      29.82F HX 105           
NEWARK         PTSUNNY   90  75  61 W14       29.81F HX 100           
CHICAGO        CLOUDY    72  68  87 NE9       29.94R                  
HARTFORD       FAIR      89  74  60 W17G23    29.75R HX  98           
BOSTON         PTSUNNY   89  70  53 W15       29.72R HX  94           
DALLAS         MOSUNNY   83  69  62 S7        29.98R                  
PHILADELPHIA   FAIR      91  73  55 NW12      29.86S HX  99           
LOS ANGELES    PTSUNNY   64  60  87 SW5       29.92R                  
WASHINGTON DC  FAIR      92  71  50 NW13      29.92F HX  98